Regional Weather Roundup
Issued by NWS Upton, NY

Current Version | Previous Version | Graphics & Text | Print | Product List | Glossary Off
Versions: 1 2 3 4 5 6 7 8 9 10 11 12 13 14 15 16 17 18 19 20 21 22 23 24 25 26 27 28 29 30 31 32 33 34 35 36 37 38 39 40 41 42 43 44 45 46 47 48 49 50

000
ASUS41 KOKX 200605
RWROKX

REGIONAL WEATHER ROUNDUP
NATIONAL WEATHER SERVICE NEW YORK NY
200 AM EDT SAT SEP 20 2014

NOTE: "FAIR" INDICATES FEW OR NO CLOUDS BELOW 12,000 FEET WITH NO
SIGNIFICANT WEATHER AND/OR OBSTRUCTIONS TO VISIBILITY.

NYZ071-072-176-178-NJZ106-104-200700-
NEW YORK CITY METRO AREA


CITY           SKY/WX    TMP DP  RH WIND       PRES   REMARKS
CENTRAL PARK   CLEAR     59  48  67 VRB3      30.35F
LAGUARDIA APRT PTCLDY    59  48  67 E6        30.32F
KENNEDY INTL   PTCLDY    60  50  69 SE7       30.33F
NEWARK/LIBERTY MOCLDY    63  52  67 SE7       30.32F
BRNX BOT. GARD   N/A     55  48  76 CALM      30.36S
TETERBORO      PTCLDY    60  48  64 SE7       30.31F
$$

NYZ177-179-078>081-200700-
LONG ISLAND NEW YORK

CITY           SKY/WX    TMP DP  RH WIND       PRES   REMARKS
FARMINGDALE    CLEAR     54  46  74 CALM      30.33F
ISLIP          CLEAR     53  46  77 CALM      30.32F
SHIRLEY        MOCLDY    50  45  83 CALM      30.34F
WESTHAMPTON    CLOUDY    60  49  66 SE5       30.36F
MONTAUK POINT    N/A     57  47  69 VRB5      30.37F
$$

NYZ052-065-067-200700-
HUDSON VALLEY

CITY           SKY/WX    TMP DP  RH WIND       PRES   REMARKS
WHITE PLAINS   CLEAR     51  47  86 CALM      30.33F
NEWBURGH       PTCLDY    50  46  87 VRB6      30.34S
MONTGOMERY     CLOUDY    48  45  89 N3        30.33S
POUGHKEEPSIE   MOCLDY    51  45  79 N3        30.33S
ALBANY         CLEAR     52  43  71 S16G24    30.30F
$$

NJZ001-105-106-008-010-013-015-019>022-104-200700-
NEW JERSEY

CITY           SKY/WX    TMP DP  RH WIND       PRES   REMARKS
NEWARK/LIBERTY MOCLDY    63  52  67 SE7       30.32F
TETERBORO      PTCLDY    60  48  64 SE7       30.31F
CALDWELL       MOCLDY    56  48  74 CALM      30.33F
MORRISTOWN     CLOUDY    52  48  87 CALM      30.32F
SOMERVILLE     PTCLDY    47  45  93 NW5       30.31F FOG
LINDEN         MOCLDY    66  55  67 S6        30.33F
SUSSEX         CLEAR     48  45  89 CALM      30.33S FOG
ANDOVER          N/A     50  48  93 CALM      30.32S
TRENTON        CLEAR     53  50  89 E5        30.30F
MILLVILLE      CLEAR     55  53  93 SE3       30.29F
ATLANTIC CITY  CLEAR     62  56  80 SE8       30.30F
WRIGHTSTOWN    CLEAR     52  52  99 E2        30.29F
TOMS RIVER     CLEAR     57  54  88 CALM      30.31F
BELMAR         PTCLDY    61  52  72 SE7       30.31F
$$

PAZ047>061-062-071-200700-
EASTERN PENNSYLVANIA

CITY           SKY/WX    TMP DP  RH WIND       PRES   REMARKS
PHILADELPHIA   PTCLDY    58  54  86 E5        30.31F
ALLENTOWN      CLOUDY    57  51  80 CALM      30.32S
SCRANTON       CLOUDY    57  50  77 CALM      30.29S
$$

CTZ002-004>006-009-010-012-RIZ004-006-007-MAZ004-011-015-200700-
SOUTHERN NEW ENGLAND
 IN CT

CITY           SKY/WX    TMP DP  RH WIND       PRES   REMARKS
BRADLEY INTL   PTCLDY    43  39  86 CALM      30.37S
HARTFORD       CLEAR     47  42  83 MISG      30.38S
DANBURY        PTCLDY    46  42  86 CALM      30.36S
WTRBRY/OXFORD  CLOUDY    50  43  76 CALM      30.37S
BRIDGEPORT     PTCLDY    60  50  69 SE6       30.34F
MERIDEN        CLOUDY    47  44  90 NW3       30.36F
NEW HAVEN      CLOUDY    62  50  64 SE10      30.35F
CHESTER        MOCLDY    45  43  93 CALM      30.37F
GROTON         MOCLDY    56  48  74 SE13      30.36F
WILLIMANTIC    CLEAR     39  36  89 N6        30.39S WCI  35

 IN RI

CITY           SKY/WX    TMP DP  RH WIND       PRES   REMARKS
PROVIDENCE     CLEAR     45  39  79 NW3       30.39S
BLOCK ISLAND   CLEAR     55  43  62 SE9       30.37S
WESTERLY       PTCLDY    45  41  86 N5        30.38F

 IN MA

CITY           SKY/WX    TMP DP  RH WIND       PRES   REMARKS
BOSTON         CLEAR     49  38  65 S5        30.40R
WORCESTER      CLEAR     41  34  76 S6        30.38R
WESTFIELD      MOCLDY    39  37  92 CALM      30.38S
PROVINCETOWN   CLEAR     48  37  66 SE5       30.40F
NANTUCKET      PTCLDY    52  42  69 SE10      30.38F
$$

ANZ330-335-338-340-345-350-353-355-200700-
COASTAL MARINE OBSERVATIONS


STATION/POSITION TIME  SKY/WX   TEMP    WIND        PRES    VSBY  WAVE
                                AIR SEA DIR/SP/G                  HT/PER
                 (UTC)          (F)     (DEG/KT/KT) (MB)    (MI)  (FT/S)
NY HARB ENTRANCE 0600            64 69  120/ 16/ 17 1026.7          3/ 6
4S FIRE IS       0600               69                N/A           3/ 6
20S FIRE ISLAND  0600            63 67  120/ 12/ 16 1027.3          4/ 6
23SW MTP         0600                                 N/A           4/ 5
HUDSON CANYON    0600            66 72  110/ 14/ 16 1026.5
EXECUTION ROCKS  0600            61 70  130/ 10/ 12   N/A
WESTERN LI SOUND 0600            60     130/  8/ 10   N/A           1
CENTRAL LI SOUND 0600            60 70  130/ 12/ 14   N/A           1/ 4
EASTERN LI SOUND 0500            60 67  150/ 14/ 17   N/A
ROBBINS REEF     0500                               1025.8
$$


>>>>>>>>>>>>>>>>>>>>>>>>>>>> KEY <<<<<<<<<<<<<<<<<<<<<<<<<<<
>                                                          <
>     SKY/WX - SKY CONDITION/PRESENT WEATHER               <
>     TMP    - TEMPERATURE IN FAHRENHEIT                   <
>     DP     - DEWPOINT IN FAHRENHEIT                      <
>     RH     - RELATIVE HUMIDITY IN PERCENT                <
>     WIND   - DIRECTION AND SPEED IN MPH                  <
>     PRES   - MEAN SEA LEVEL PRESSURE IN INCHES OF HG     <
>     WCI    - WIND CHILL INDEX                            <
>     VSB    - VISIBILITY IN MILES                         <
>     HX     - HEAT INDEX                                  <
>     TC     - TEMPERATURE IN CELSIUS                      <
>     VRB    - VARIABLE WIND DIRECTION                     <
>                                                          <
>>>>>>>>>>>>>>>>>>>>>>>>>>>> KEY <<<<<<<<<<<<<<<<<<<<<<<<<<<





USA.gov is the U.S. government's official web portal to all federal, state and local government web resources and services.